This demonstration page uses our WeatherBlox Daily Observations layout. Learn more.

Left ArrowRight Arrow

Hourly Observations for August 21, 2021

Temp ( °F °C ) Dew Point ( °F °C ) Humidity (%) Winds ( mph kmh ) Pressure ( in mb ) Visibility ( mi km ) Precip ( " mm )
12:53 am 00:53 Cloudy with Haze 71 21.7 55 12.8 57 57 Calm 29.68 1005 5 8 0.00 0.00
1:53 am 01:53 Cloudy with Haze 70 21.1 55 12.8 59 59 Calm 29.68 1005 5 8 0.00 0.00
2:53 am 02:53 Cloudy with Haze 67 19.4 55 12.8 66 66 Calm 29.68 1005 5 8 0.00 0.00
3:53 am 03:53 Cloudy with Haze 66 18.9 55 12.8 68 68 Calm 29.68 1005 5 8 0.00 0.00
4:53 am 04:53 Cloudy with Haze 68 20 55 12.8 63 63 SW 6 9 29.69 1005 5 8 0.00 0.00
5:53 am 05:53 Mostly Cloudy with Haze 66 18.9 54 12.2 65 65 SE 3 6 29.70 1006 6 10 0.00 0.00
6:53 am 06:53 Hazy 63 17.2 54 12.2 73 73 Calm 29.72 1006 4 6 0.00 0.00
7:53 am 07:53 Hazy 67 19.4 53 11.7 61 61 SSW 6 9 29.73 1007 5 8 0.00 0.00
8:53 am 08:53 Hazy 68 20 53 11.7 59 59 SSW 7 11 29.74 1007 5 8 0.00 0.00
9:53 am 09:53 Hazy 70 21.1 54 12.2 57 57 SSE 3 6 29.73 1007 6 10 0.00 0.00
10:53 am 10:53 Hazy 74 23.3 53 11.7 48 48 Calm 29.72 1007 5 8 0.00 0.00
11:53 am 11:53 Hazy 77 25 53 11.7 43 43 S 3 6 29.71 1006 5 8 0.00 0.00
12:53 pm 12:53 Hazy 80 26.7 54 12.2 41 41 S 7 11 29.70 1006 5 8 0.00 0.00
1:53 pm 13:53 Hazy 82 27.8 53 11.7 37 37 S 10 17 29.69 1005 5 8 0.00 0.00
2:53 pm 14:53 Hazy 84 28.9 49 9.4 30 30 SSW 9 15 29.68 1005 4 6 0.00 0.00
3:53 pm 15:53 Hazy 85 29.4 48 8.9 28 28 S 12 19 29.67 1005 4 6 0.00 0.00
4:53 pm 16:53 Hazy 84 28.9 49 9.4 30 30 SW 10 17 29.67 1005 5 8 0.00 0.00
5:53 pm 17:53 Hazy 81 27.2 53 11.7 38 38 SSW 12 19 29.68 1005 5 8 0.00 0.00
6:53 pm 18:53 Hazy 79 26.1 55 12.8 44 44 SSE 10 17 29.69 1005 6 10 0.00 0.00
7:53 pm 19:53 Cloudy with Haze 76 24.4 54 12.2 47 47 SE 6 9 29.70 1006 6 10 0.00 0.00
8:53 pm 20:53 Cloudy with Smoke 74 23.3 55 12.8 52 52 SSE 5 7 29.72 1006 7 11 0.00 0.00
9:53 pm 21:53 Cloudy with Smoke 73 22.8 55 12.8 53 53 SSE 5 7 29.75 1007 7 11 0.00 0.00
10:53 pm 22:53 Cloudy with Smoke 71 21.7 55 12.8 57 57 Calm 29.77 1008 7 11 0.00 0.00
11:53 pm 23:53 Cloudy with Smoke 67 19.4 55 12.8 66 66 Calm 29.78 1008 7 11 0.00 0.00

Powered by AerisWeather